SEASAT 1 1 10967U 78064A 12034.93275009 +.00000161 +00000-0 +89658-4 0 06392 2 10967 108.0036 169.0733 0001991 233.2380 126.8575 14.42441630763833 LANDSAT 4 1 13367U 82072A 12034.92000227 +.00002095 +00000-0 +14996-3 0 09775 2 13367 098.2652 023.5369 0017254 345.0594 015.0125 15.05569475588991 LANDSAT 5 1 14780U 84021A 12035.38896324 .00000092 00000-0 30379-4 0 6476 2 14780 098.1627 103.5845 0002681 004.5910 355.5309 14.57151434485504 COSMOS 1602 1 15331U 84105A 12034.76411760 +.00001126 +00000-0 +81474-4 0 05706 2 15331 082.5241 069.0378 0013563 186.5019 173.6032 15.03030124486355 SPOT 1 1 16613U 86019A 12034.83605891 .00000453 00000-0 88682-4 0 2532 2 16613 098.6532 305.8713 0150960 341.3255 018.2440 14.61413693 42781 COSMOS 1766 1 16881U 86055A 12034.74962393 +.00002332 +00000-0 +17917-3 0 02442 2 16881 082.5134 128.8885 0012017 276.9859 083.0028 15.01272268386367 MOS 1A (MOMO 1) 1 17527U 87018A 12034.93909964 -.00000166 +00000-0 -79180-4 0 09001 2 17527 099.0974 001.2684 0007881 298.2229 061.8139 14.02050719274720 IRS 1A 1 18960U 88021A 12034.82967504 +.00000275 +00000-0 +23269-3 0 04213 2 18960 099.4052 026.8661 0014613 146.0992 214.1102 13.96507829120903 OKEAN 1 1 19274U 88056A 12034.85936754 +.00000974 +00000-0 +79573-4 0 06001 2 19274 082.5059 245.4727 0015332 129.3618 230.8965 14.98241708280635 SPOT 2 1 20436U 90005A 12035.48715321 .00000969 00000-0 17102-3 0 721 2 20436 098.6557 162.4681 0153156 208.4420 150.8357 14.62742616146162 MOS 1B (MOMO 1B) 1 20478U 90013A 12034.92577268 -.00000090 +00000-0 -34306-4 0 05728 2 20478 099.0321 344.9362 0006241 048.5307 311.6389 13.95060231040395 OKEAN 2 1 20510U 90018A 12034.93930376 +.00000915 +00000-0 +85488-4 0 09505 2 20510 082.5181 245.7495 0015534 094.6420 265.6574 14.92960542188323 OKEAN 3 1 21397U 91039A 12034.89985010 +.00001043 +00000-0 +11123-3 0 05539 2 21397 082.5220 194.3293 0018432 295.9269 064.0044 14.87821303117806 ERS 1 1 21574U 91050A 12034.92686011 +.00000371 +00000-0 +14061-3 0 02716 2 21574 098.1980 017.5182 0034886 064.0597 296.4181 14.36019778076099 IRS 1B 1 21688U 91061A 12034.79588040 +.00000372 +00000-0 +29557-3 0 03619 2 21688 098.7685 011.7796 0024637 347.6621 012.3940 13.97006581935884 TOPEX/POSEIDON 1 22076U 92052A 12034.88991718 -.00000038 +00000-0 +10000-3 0 08429 2 22076 066.0381 233.0660 0007120 265.3872 094.6330 12.80964120911421 SPOT 3 1 22823U 93061A 12034.91200095 +.00000063 +00000-0 +50998-4 0 00616 2 22823 098.6958 341.8412 0017538 118.3786 241.9160 14.18802575950519 OKEAN 4 1 23317U 94066A 12034.95790962 +.00000827 +00000-0 +97003-4 0 07963 2 23317 082.5419 156.6605 0023193 075.6730 284.7058 14.83566705934906 IRS P2 1 23323U 94068A 12034.93517953 +.00000083 +00000-0 +55425-4 0 01046 2 23323 098.5446 347.1388 0000899 073.1831 286.9446 14.23209039898595 RESURS O1 1 23342U 94074A 12034.93363624 +.00000465 +00000-0 +73096-4 0 04667 2 23342 098.1288 023.7844 0000689 031.8146 328.3108 14.77240748928150 ERS 2 1 23560U 95021A 12034.92375687 +.00002677 +00000-0 +20790-3 0 02244 2 23560 098.5044 132.0029 0005463 052.8855 307.2830 15.02325601879200 SICH 1 1 23657U 95046A 12034.98174988 +.00000624 +00000-0 +74476-4 0 05991 2 23657 082.5308 297.8034 0025434 075.7399 284.6637 14.82437567886704 RADARSAT 1 23710U 95059A 12035.47896904 .00000207 00000-0 97153-4 0 2338 2 23710 098.5824 043.7251 0001009 084.8120 069.9450 14.29979770848330 IRS 1C 1 23751U 95072A 12035.72635226 .00000179 00000-0 10000-3 0 9200 2 23751 098.4305 006.7429 0001197 076.8637 024.4200 14.21984213835858 IRS B3 1 23827U 96017A 12034.87133261 .00000132 00000-0 79248-4 0 3574 2 23827 098.5219 346.8705 0003178 333.7642 026.3375 14.21890071823774 TOMS EP 1 23940U 96037A 12034.56946157 +.00000350 +00000-0 +95164-4 0 08622 2 23940 097.9213 233.7753 0028422 256.5887 103.2139 14.52725290828970 ADEOS 1 24277U 96046A 12034.90718950 +.00000057 +00000-0 +39770-4 0 08762 2 24277 098.4956 342.5441 0001074 005.4978 354.6216 14.28744027806249 ORBVIEW 2 (SEASTAR) 1 24883U 97037A 12034.82860573 +.00000114 +00000-0 +57790-4 0 06456 2 24883 098.3988 157.3652 0002885 140.0642 220.0751 14.32396851771162 IRS 1D 1 24971U 97057A 12034.96084415 +.00000131 +00000-0 +61715-4 0 02923 2 24971 098.1900 035.4087 0053124 304.1375 055.4782 14.33146746750571 TRMM 1 25063U 97074A 12034.55045121 .00015703 00000-0 21832-3 0 8923 2 25063 034.9621 099.6559 0000444 276.5785 083.4911 15.56053277809934 SPOT 4 1 25260U 98017A 12035.39647685 .00000062 00000-0 49045-4 0 1175 2 25260 098.5821 101.0211 0001000 050.7532 309.3732 14.20093858718899 RESURS O1-N4 1 25394U 98043A 12034.94117683 +.00000026 +00000-0 +28942-4 0 00208 2 25394 098.3100 030.3132 0000725 310.8617 049.2500 14.24271889705297 FASAT B 1 25395U 98043B 12034.98254350 +.00000115 +00000-0 +67380-4 0 02510 2 25395 098.3112 029.2535 0001939 277.2388 082.8570 14.24518563705365 TMSAT 1 25396U 98043C 12034.97500088 +.00000067 +00000-0 +47155-4 0 02066 2 25396 098.3266 026.0253 0002170 315.1702 044.9302 14.23903732705163 TECHSAT 1B 1 25397U 98043D 12035.54448167 .00000124 00000-0 72986-4 0 6956 2 25397 098.3493 020.9331 0001075 001.3798 358.7376 14.23256280705018 ROCSAT 1 1 25616U 99002A 12034.58512467 +.00003642 +00000-0 +25751-3 0 05723 2 25616 034.9638 090.5983 0045479 244.1638 115.4375 15.03534389711990 SUNSAT 1 25636U 99008C 12034.96177659 +.00000220 +00000-0 +64281-4 0 01270 2 25636 096.4611 003.8672 0149062 056.5126 305.0210 14.43698610681855 LANDSAT 7 1 25682U 99020A 12035.22289628 .00000085 00000-0 28833-4 0 7857 2 25682 098.2138 105.3849 0000787 133.6487 226.4774 14.57104108681176 OSCAR 36 (UOSAT 12) 1 25693U 99021A 12034.94530490 +.00000236 +00000-0 +50797-4 0 07474 2 25693 064.5567 040.5450 0038643 231.5937 128.1706 14.79133325690066 KITSAT 3 1 25756U 99029A 12034.82192983 .00000062 00000-0 26766-4 0 7308 2 25756 098.5641 269.2263 0014525 122.2787 237.9815 14.52762800672764 TUBSAT 1 25757U 99029B 12035.39632813 -.00000001 00000-0 11829-4 0 7693 2 25757 098.6107 261.8506 0014448 157.6744 202.5081 14.50948694672230 IRS P4 (OCEANSAT 1) 1 25758U 99029C 12034.83175595 .00000200 00000-0 61552-4 0 9680 2 25758 098.2592 128.5075 0001782 152.5422 207.5867 14.51071536672307 QUIKSCAT 1 25789U 99034A 12034.58940644 +.00000036 +00000-0 +32739-4 0 02198 2 25789 098.6229 225.6143 0001061 044.6944 315.4326 14.26888262657550 OKEAN O 1 25860U 99039A 12034.93207138 +.00000426 +00000-0 +72222-4 0 05520 2 25860 097.9173 000.4735 0001158 032.6586 327.4689 14.74074797674795 IKONOS 2 1 25919U 99051A 12035.50835499 .00000240 00000-0 54230-4 0 3419 2 25919 098.1118 111.7881 0000880 085.0658 275.0648 14.64443856660909 CBERS 1 1 25940U 99057A 12034.92757992 +.00000125 +00000-0 +58826-4 0 01061 2 25940 098.2450 005.6627 0006227 084.9825 275.2072 14.34651907644693 TERRA 1 25994U 99068A 12035.51353515 .00000154 00000-0 44134-4 0 6920 2 25994 098.2068 111.4930 0000941 086.5512 273.5802 14.57090123645299 KOMPSAT 1 26032U 99070A 12035.53879594 .00000442 00000-0 88505-4 0 7054 2 26032 097.7927 249.3965 0006074 065.7845 294.4014 14.66205777648463 TIUNGSAT 1 1 26548U 00057D 12034.98401117 +.00000866 +00000-0 +11954-3 0 02534 2 26548 064.5534 342.6251 0033819 316.7399 043.1050 14.84373170614641 EO 1 1 26619U 00075A 12035.24769872 -.00000424 00000-0 -74405-4 0 483 2 26619 098.0963 102.9037 0010527 166.6999 193.4465 14.62513651596853 SAC C 1 26620U 00075B 12034.55792810 +.00000312 +00000-0 +79099-4 0 05209 2 26620 097.8827 030.3823 0000855 093.2214 266.9078 14.56798811595622 EROS A1 1 26631U 00079A 12034.95653073 +.00004405 +00000-0 +26614-3 0 08480 2 26631 097.6227 105.4439 0005804 312.2687 148.6735 15.11199848620183 QUICKBIRD 2 1 26953U 01047A 12035.50053186 .00006282 00000-0 19614-3 0 1833 2 26953 097.2390 102.6030 0001208 066.0245 058.6512 15.33539724578428 TES 1 26957U 01049A 12035.42694935 -.00000694 00000-0 -49235-4 0 1413 2 26957 097.6360 111.5356 0035096 179.8093 180.3052 15.00752956563546 JASON 1 26997U 01055A 12034.87725175 -.00000038 +00000-0 +10000-3 0 04560 2 26997 066.0383 233.1293 0006780 269.1538 090.8702 12.80930370475217 METEOR 3M 1 27001U 01056A 12034.94625713 -.00000019 +00000-0 +26567-4 0 00441 2 27001 099.1910 222.5188 0014262 054.2684 305.9789 13.68732113507089 BADR B 1 27003U 01056C 12035.57829174 -.00000027 00000-0 16279-4 0 22 2 27003 099.1582 229.5376 0020870 047.7157 312.5752 13.70128283507743 MAROC TUBSAT 1 27004U 01056D 12034.66069825 +.00000024 +00000-0 +74373-4 0 08507 2 27004 099.1551 227.7744 0020423 051.4848 308.8120 13.70049333507589 ENVISAT 1 27386U 02009A 12034.98012859 -.00000143 +00000-0 -33108-4 0 09673 2 27386 098.4787 105.2794 0000989 090.1749 269.9520 14.37493787519411 SPOT 5 1 27421U 02021A 12034.90185567 +.00000254 +00000-0 +13966-3 0 00363 2 27421 098.6676 109.2152 0001204 107.7879 358.1617 14.20063946505653 AQUA 1 27424U 02022A 12034.84647886 +.00000481 +00000-0 +11685-3 0 02042 2 27424 098.2213 337.2330 0001185 083.2752 276.8587 14.57088613518807 HAIYANG 1 1 27430U 02024A 12035.57057723 .00000206 00000-0 96023-4 0 8510 2 27430 098.3461 084.5299 0009812 115.3506 244.8695 14.29980852507599 ALSAT 1 1 27559U 02054A 12035.55340206 .00000321 00000-0 61370-4 0 3570 2 27559 097.8100 251.1334 0023698 160.6572 199.5560 14.69816349491054 ADEOS 2 1 27597U 02056A 12034.95571095 +.00000130 +00000-0 +71115-4 0 06477 2 27597 098.3435 076.4090 0001305 026.1358 333.9889 14.26376983475888 ICESAT (Decayed 2010-08-30) 1 27642U 03002A 10242.29496145 .32829894 29777-6 27939-3 0 7810 2 27642 093.9657 159.5990 0008035 042.2770 318.2079 16.52038191415543 ORBVIEW 3 (Decayed 2011-03-13) 1 27838U 03030A 11072.19604280 .02372952 22421-5 68990-3 0 4137 2 27838 096.9618 120.7668 0096363 024.3634 023.5239 16.16168790433377 IRS P6 1 28051U 03046A 12035.42523274 .00000092 00000-0 61523-4 0 6123 2 28051 098.6136 109.0228 0001512 210.8595 149.2493 14.21675243430837 CBERS 2 1 28057U 03049A 12035.47197413 .00000093 00000-0 46923-4 0 637 2 28057 098.1688 056.7972 0001947 028.0517 332.0777 14.35077246434407 TANSUO 1 1 28220U 04012A 12034.98768681 +.00001639 +00000-0 +17429-3 0 00956 2 28220 097.4539 032.3971 0010407 231.4348 128.5939 14.90195383423543 ROCSAT 2 1 28254U 04018A 12034.93037069 +.00000105 +00000-0 +10000-3 0 06763 2 28254 098.9877 100.6942 0002362 138.3897 328.7106 14.00779011394165 AURA 1 28376U 04026A 12034.85201911 +.00000513 +00000-0 +12401-3 0 03630 2 28376 098.2231 339.3888 0001091 093.3406 266.7915 14.57099814401853 CARTOSAT-1 1 28649U 05017A 12034.98415856 +.00000887 +00000-0 +11650-3 0 05971 2 28649 097.8531 109.8854 0000587 116.3052 243.8191 14.82660150365372 TOPSAT 1 28891U 05043B 12035.41307411 .00000181 00000-0 46899-4 0 9970 2 28891 097.9203 265.0887 0016529 208.0284 152.0024 14.60058516334250 SINAH 1 1 28893U 05043D 12034.71690366 +.00000147 +00000-0 +39562-4 0 02972 2 28893 097.9293 266.4124 0014854 209.7048 150.3310 14.60314188334221 ALOS 1 28931U 06002A 12035.51589944 .00000535 00000-0 12153-3 0 7320 2 28931 098.0913 107.9861 0001510 056.1695 303.9651 14.59762106321279 EROS B 1 29079U 06014A 12034.97435194 +.00007836 +00000-0 +38791-3 0 04912 2 29079 097.4339 154.8372 0004808 256.4820 213.3539 15.18050531320494 YAOGAN 1 1 29092U 06015A 12034.97335291 +.00000319 +00000-0 +48137-4 0 00141 2 29092 097.9157 026.4965 0001229 074.8538 285.2810 14.80742922312060 RESURS DK-1 1 29228U 06021A 12035.49284365 .00000434 00000-0 43231-4 0 3299 2 29228 069.9354 033.7530 0002496 138.9480 005.5659 14.99267524314069 KOMPSAT 2 1 29268U 06031A 12035.53553809 .00000327 00000-0 75331-4 0 1375 2 29268 098.2775 286.6894 0016068 041.1310 319.1101 14.61657929294664 LAPAN-TUBSAT 1 29709U 07001A 12035.52086670 .00000208 00000-0 33630-4 0 6312 2 29709 097.6786 072.6246 0014215 032.3189 327.8898 14.80584568273857 CARTOSAT 2AT 1 29710U 07001B 12035.55415215 .00000586 00000-0 86864-4 0 6077 2 29710 097.9255 097.0032 0001525 076.4916 283.6464 14.78680165273602 HAIYANG 1B 1 31113U 07010A 12035.43276345 .00000113 00000-0 60506-4 0 3543 2 31113 098.4299 099.8125 0014740 111.0417 249.2342 14.29647337251412 SKYMED 1 1 31598U 07023A 12035.55187086 .00000605 00000-0 82497-4 0 1783 2 31598 097.8662 222.9142 0001189 094.9746 265.1635 14.82162355252178 TERRA SAR X 1 31698U 07026A 12035.54677700 .00001049 00000-0 53116-4 0 5450 2 31698 097.4456 044.1876 0001733 089.4125 056.7916 15.19157086257378 WORLDVIEW 1 1 32060U 07041A 12035.48015667 .00003551 00000-0 14770-3 0 8839 2 32060 097.3437 114.6571 0001945 083.6130 037.8322 15.24412767243699 CBERS 2B 1 32062U 07042A 12035.27568085 .00000060 00000-0 33468-4 0 5358 2 32062 098.3939 110.7407 0031837 321.5566 038.3356 14.38764490229733 SKYMED 2 1 32376U 07059A 12035.58563096 .00000616 00000-0 83842-4 0 5892 2 32376 097.8666 222.9490 0001143 092.4083 267.7291 14.82161447224929 RADARSAT 2 1 32382U 07061A 12034.94158604 -.00000010 +00000-0 +12933-4 0 05810 2 32382 098.5782 043.8861 0001004 093.2272 346.7772 14.29982842216148 CARTOSAT 2A 1 32783U 08021A 12034.92403669 +.00000106 +00000-0 +21521-4 0 01795 2 32783 097.9260 096.9198 0015277 174.0190 186.1162 14.78652059203450 IMS-1 1 32786U 08021D 12035.46106746 -.00004651 00000-0 -60669-3 0 6638 2 32786 097.8225 096.5695 0013389 144.2188 215.9985 14.80073597203720 GLAST 1 33053U 08029A 12034.93108204 +.00000280 +00000-0 +00000-0 0 09798 2 33053 025.5838 339.1476 0012800 003.5337 356.5417 15.05992902200951 JASON 2 1 33105U 08032A 12034.75701291 -.00000050 00000-0 46041-4 0 1961 2 33105 066.0395 233.6536 0007307 272.0000 088.0167 12.80930557169500 RAPIDEYE 2 1 33312U 08040A 12035.45110753 .00000371 00000-0 56099-4 0 8433 2 33312 097.9240 125.9080 0010790 230.1512 129.8750 14.79879692185526 RAPIDEYE 5 1 33313U 08040B 12035.47666226 .00000367 00000-0 55482-4 0 8336 2 33313 097.9215 125.1572 0019795 102.3134 258.0299 14.79876279185476 RAPIDEYE 1 1 33314U 08040C 12035.46434916 .00000368 00000-0 55598-4 0 8806 2 33314 097.9226 125.9752 0023001 244.5214 115.3618 14.79873617185518 RAPIDEYE 3 1 33315U 08040D 12034.96219442 +.00000424 +00000-0 +63030-4 0 08102 2 33315 097.9200 124.6216 0012247 173.6746 186.4614 14.79876819185404 RAPIDEYE 4 1 33316U 08040E 12035.42154816 .00000402 00000-0 60133-4 0 8059 2 33316 097.9195 124.9073 0013724 120.0437 240.2138 14.79876876185465 HJ-1A 1 33320U 08041A 12035.49055593 .00000470 00000-0 75409-4 0 7690 2 33320 097.8797 107.7228 0023885 221.9944 137.9444 14.75960348183780 HJ-1B 1 33321U 08041B 12035.45323179 .00000691 00000-0 10651-3 0 8250 2 33321 097.8828 107.9031 0041538 236.1050 123.6205 14.76002903183761 GEOEYE 1 1 33331U 08042A 12035.54197980 .00000162 00000-0 39689-4 0 7885 2 33331 098.1076 110.5882 0008932 295.5450 064.4832 14.64444230182328 THEOS 1 33396U 08049A 12034.95129604 +.00000130 +00000-0 +81808-4 0 05732 2 33396 098.7125 104.0228 0000872 089.2973 012.8868 14.20047015173277 SKYMED 3 1 33412U 08054A 12035.57293997 .00001918 00000-0 24727-3 0 6162 2 33412 097.8662 222.9364 0001184 100.7816 259.3553 14.82170223177386 YAOGAN 4 1 33446U 08061A 12035.52224727 .00000063 00000-0 16786-4 0 5286 2 33446 097.8071 103.7753 0017817 167.5952 192.5698 14.74460289171058 YAOGAN 5 1 33456U 08064A 12035.52344924 .00007714 00000-0 23983-3 0 5277 2 33456 097.2725 108.8207 0009606 211.2803 272.8440 15.33560273174968 YAOGAN 6 1 34839U 09021A 12035.52734954 .00004868 00000-0 21098-3 0 1305 2 34839 097.5488 123.7362 0001599 025.9653 145.5029 15.22860756154613 RAZAKSAT 1 35578U 09037A 12035.37313837 .00000836 00000-0 51966-4 0 8349 2 35578 008.9872 043.9350 0016830 232.9944 126.8727 14.65295612137363 DEIMOS 1 1 35681U 09041A 12035.38604808 .00000278 00000-0 54870-4 0 7965 2 35681 098.0468 296.3818 0001573 095.5467 264.5878 14.69660023135083 OCEANSAT 2 1 35931U 09051A 12034.75875016 +.00006032 +00000-0 +15388-2 0 06327 2 35931 098.2782 132.5732 0003934 114.1859 245.9583 14.50880122125207 WORLDVIEW 2 1 35946U 09055A 12035.41558933 .00000091 00000-0 44777-4 0 5826 2 35946 098.4913 116.5211 0001808 144.1997 215.9314 14.37632511121914 SMOS 1 36036U 09059A 12034.59588108 -.00000043 00000-0 00000+0 0 6988 2 36036 098.4414 223.1999 0000698 081.7357 278.3913 14.39749500118509 YAOGAN 7 1 36110U 09069A 12034.90464332 -.00000311 +00000-0 -38871-4 0 03954 2 36110 097.9421 170.5566 0025060 276.6692 083.1678 14.74454975115961 YAOGAN 10 1 36834U 10038A 12035.53054842 .00000404 00000-0 59213-4 0 6548 2 36834 097.8322 038.6468 0001251 050.0098 310.1223 14.80652040 80430 SKYMED 4 1 37216U 10060A 12034.92739938 +.00000277 +00000-0 +41310-4 0 04125 2 37216 097.8659 222.3029 0001210 087.9863 272.1527 14.82155868067377 SAC-D (AQUARIUS) 1 37673U 11024A 12034.58125313 -.00000049 +00000-0 +00000-0 0 02157 2 37673 098.0110 043.1643 0001154 088.0086 272.1282 14.72325812035017